Simultaneous Nadir Overpasses (SNOs) Predictions

Prediction of SNOs between GOES-14 and NPP Satellite Orbit:

Table of predicted SNOs for the next 14.0 days since TLE Epoch: 11/9/2024
Index Date Time (GOES-14) GOES-14 Lat,Lon NPP Lat,Lon Distance(km) Time Diff (sec)
1 11/10/2024 20:42:00 0.05,-108.55 -0.03,-108.95 46.21 80
2 11/11/2024 20:20:34 0.06,-108.55 0.97,-104.42 470.47 80
3 11/13/2024 08:45:01 -0.04,-108.61 0.22,-109.68 121.90 80
4 11/14/2024 08:23:36 -0.05,-108.61 -0.85,-105.16 394.46 80
5 11/15/2024 20:48:10 0.03,-108.54 -0.37,-110.44 216.54 80
6 11/16/2024 20:26:45 0.04,-108.54 0.65,-105.91 299.97 80
7 11/18/2024 08:51:10 -0.01,-108.60 0.56,-111.16 292.21 80
8 11/19/2024 08:29:45 -0.03,-108.59 -0.48,-106.63 223.91 80
9 11/20/2024 20:54:18 0.01,-108.52 -0.78,-111.91 387.44 80
10 11/21/2024 20:32:53 0.02,-108.52 0.27,-107.38 129.20 80
